Погода в Черемхово

Россия / Забайкальский край     50°34′46″N   110°09′25″E
темп.,
°C
ветер,
м/с
пор.,
м/с
влажн.,
%
обл.,
%
осадки,
мм/ч
давл.,
гПа
погр.,
м
21 января, пт
пт2100:00−16ю119899 0.1 103210
03:00−17ююз119998 0.2 103410
06:00−18ююз119999 0.1 10359
09:00−19ю119984 0.2 10369
12:00−14зсз119397 0.1 1034158
15:00−11зсз118898 0.1 1032322
18:00−16юз119868 0.1 10349
21:00−20ю119868 0.1 103710
22 января, сб
сб2200:00−21ююв119864 0.0 103810
03:00−23юв119973 0.1 103910
06:00−23юв119998 0.0 103914
09:00−21вюв1198100 0.0 103825
12:00−15всв1288100 0.0 1035148
15:00−11всв1281100 0.0 1031274
18:00−13всв1195100 0.0 10329
21:00−16юв1196100 0.0 103411
23 января, вс
вс2300:00−18юв1196100 0.0 103512
03:00−19юв1197100 0.0 103513
06:00−20вюв1198100 0.0 103512
09:00−18вюв1197100 0.0 103426
12:00−14св1191100 0.1 1032171
15:00−11ссв1188100 0.4 1029332
18:00−12з0197100 0.4 102941
21:00−13зсз0097100 0.9 103012
24 января, пн
пн2400:00−14сз0097100 0.4 103117
03:00−15зсз0198100 0.8 103213
06:00−16зюз1198100 0.3 103211
09:00−17зюз1198100 0.5 103312
12:00−14з1290100 0.2 1033376
15:00−13з2383100 0.3 1031660
18:00−14юз119798 0.1 103214
21:00−17зюз119898 0.3 103421
25 января, вт
вт2500:00−18зюз1199100 0.1 103516
03:00−18зюз119991 0.3 103522
06:00−18зюз2298100 0.1 103548
09:00−19зюз229995 0.3 103538
12:00−15з368996 0.1 1034513
15:00−14з4682100 0.2 1032828
18:00−16зюз249191 0.1 1033159
21:00−18зюз2597100 0.1 1035173